Location: Cucq
(50.4773°N, 1.6202°E)
Time: 20:31:32
(UTC+00:00)

Cosmos 1470 - Pass Details

Date: 07 August 2020
Orbit: 520 x 543 km, 82.5° (Epoch: 21 September)

Event Time Altitude Azimuth Distance (km) Brightness Sun altitude
Exits shadow 02:41:40 18° 180° (S) 1,386 4.4 -14.3°
Maximum altitude 02:44:35 73° 98° (E) 573 2.9 -14.0°
Drops below altitude 10° 02:48:34 10° 14° (NNE) 1,820 6.5 -13.6°
Sets 02:50:45 0° 12° (NNE) 2,720 7.5 -13.4°
